User: anonymous   Login
Location: Piotrkow Trybunalski
(51.4000°N, 19.6830°E)
Time: 00:10:01
(UTC+02:00)
Language:

KKS-1 - Orbit

View from above orbital plane
View from above orbital plane
View from above satellite
View from above satellite

Ground track
Ground track

The orbit data is extracted from the following two-line orbital elements,

1 33499U 09002H   23090.14718890  .00002945  00000-0  42700-3 0  9997
2 33499  98.1827 341.4406 0010062 113.5908 246.6359 14.76807669762973
Epoch (UTC): 31 March 2023 03:31:57
Eccentricity: 0.0010062
inclination: 98.1827°
perigee height: 632 km
apogee height: 646 km
right ascension of ascending node: 341.4406°
argument of perigee: 113.5908°
revolutions per day: 14.76807669
mean anomaly at epoch: 246.6359°
orbit number at epoch: 76297

The dashed part of the orbit path shows where the satellite is in the earth's shadow,  

DLR